This demonstration page uses our WeatherBlox Daily Observations layout. Learn more.

Left ArrowRight Arrow

39.08367, -84.50855

Hourly Observations for May 6, 2019

Temp ( °F °C ) Dew Point ( °F °C ) Humidity (%) Winds ( mph kmh ) Pressure ( in mb ) Visibility ( mi km ) Precip ( " mm )
12:53 am 00:53 Clear 50 10 48 8.9 93 93 Calm 29.96 1015 10 16.0934 0 0
1:53 am 01:53 Clear 49 9.4 47 8.3 93 93 Calm 29.97 1015 10 16.0934 0 0
2:53 am 02:53 Clear 48 8.9 47 8.3 96 96 Calm 29.98 1015 10 16.0934 0 0
3:53 am 03:53 Clear 47 8.3 46 7.8 97 97 Calm 29.98 1015 8 12.87472 0 0
4:53 am 04:53 Clear with Mist and Fog 46 7.8 44 6.7 93 93 Calm 30 1016 1.75 2.816345 0 0
5:12 am 05:12 Clear with Mist and Fog 46 7.8 45 7.2 96 96 Calm 30.02 1017 3 4.82802 0 0
5:29 am 05:29 Clear with Mist and Fog 46 7.8 45 7.2 96 96 Calm 30.02 1017 1.75 2.816345 0 0
5:38 am 05:38 Clear with Mist and Fog 46 7.8 44 6.7 93 93 Calm 30.03 1017 0.75 1.207005 0 0
5:44 am 05:44 Clear with Mist and Fog 46 7.8 44 6.7 93 93 ESE 3 6 30.03 1017 2 3.21868 0 0
5:53 am 05:53 Clear 46 7.8 44 6.7 93 93 VRB 3 6 30.01 1016 8 12.87472 0 0
6:46 am 06:46 Partly Cloudy 46 7.8 45 7.2 96 96 Calm 30.06 1018 8 12.87472 0 0
6:53 am 06:53 Mostly Cloudy with Mist and Fog 46 7.8 44 6.7 93 93 Calm 30.05 1018 5 8.0467 0 0
7:01 am 07:01 Mostly Cloudy with Mist and Fog 47 8.3 45 7.2 93 93 Calm 30.07 1018 1.75 2.816345 0 0
7:17 am 07:17 Mostly Cloudy with Fog 47 8.3 47 8.3 100 100 Calm 30.07 1018 0.25 0.402335 0 0
7:53 am 07:53 Mostly Cloudy with Mist and Fog 49 9.4 48 8.9 97 97 Calm 30.07 1018 0.75 1.207005 0 0
8:22 am 08:22 Mostly Cloudy with Mist and Fog 51 10.6 50 10 96 96 Calm 30.09 1019 1.5 2.41401 0 0
8:28 am 08:28 Partly Cloudy with Patchy Fog 50 10 50 10 100 100 Calm 30.09 1019 8 12.87472 0 0
8:53 am 08:53 Mostly Sunny 53 11.7 52 11.1 96 96 Calm 30.08 1019 9 14.48406 0 0
9:53 am 09:53 Sunny 62 16.7 55 12.8 78 78 SSW 5 7 30.08 1019 10 16.0934 0 0
10:53 am 10:53 Sunny 67 19.4 54 12.2 63 63 S 5 7 30.09 1019 10 16.0934 0 0
11:53 am 11:53 Sunny 70 21.1 53 11.7 55 55 S 6 9 30.08 1019 10 16.0934 0 0
12:53 pm 12:53 Sunny 73 22.8 52 11.1 48 48 W 5 7 30.07 1018 10 16.0934 0 0
1:53 pm 13:53 Sunny 74 23.3 49 9.4 41 41 Calm 30.06 1018 10 16.0934 0 0
2:53 pm 14:53 Sunny 75 23.9 51 10.6 43 43 VRB 3 6 30.06 1018 10 16.0934 0 0
3:53 pm 15:53 Mostly Sunny 75 23.9 52 11.1 45 45 S 3 6 30.04 1017 10 16.0934 0 0
4:53 pm 16:53 Sunny 75 23.9 52 11.1 45 45 VRB 7 11 30.03 1017 10 16.0934 0 0
5:53 pm 17:53 Sunny 75 23.9 50 10 41 41 SSW 5 7 30.03 1017 10 16.0934 0 0
6:53 pm 18:53 Sunny 75 23.9 54 12.2 48 48 S 3 6 30.03 1017 10 16.0934 0 0
7:53 pm 19:53 Sunny 71 21.7 54 12.2 55 55 SSW 6 9 30.05 1018 10 16.0934 0 0
8:53 pm 20:53 Clear 64 17.8 56 13.3 75 75 Calm 30.06 1018 10 16.0934 0 0
9:53 pm 21:53 Clear 62 16.7 54 12.2 75 75 SSW 5 7 30.08 1019 10 16.0934 0 0
10:53 pm 22:53 Clear 58 14.4 55 12.8 90 90 Calm 30.1 1019 10 16.0934 0 0
11:53 pm 23:53 Clear 57 13.9 53 11.7 87 87 Calm 30.1 1019 10 16.0934 0 0

Powered by AerisWeather